Danbury, CT

9:38 AM EST on January 18, 2018 (GMT -0500)
Danbury Municipal

Weather History for KDXR - July, 2014

Change the Weather History Date:

Friday, July 18, 2014

  Actual Average Record
Temperature  
Mean Temperature 66 °F -  
Max Temperature 78 °F 87 °F 102 °F (1991)
Min Temperature 54 °F 63 °F 49 °F (1956)
Growing Degree Days 16 (Base 50)    
Moisture  
Dew Point 52 °F    
Average Humidity 65    
Maximum Humidity 90    
Minimum Humidity 33    
Precipitation  
Precipitation 0.00 in - - ()
Sea Level Pressure  
Sea Level Pressure 30.21 in    
Wind  
Wind Speed 4 mph (West)    
Max Wind Speed 10 mph    
Max Gust Speed -    
Visibility 10 miles    
Events      
Averages and records for this station are not official NWS values.
T = Trace of Precipitation, MM = Missing Value Source: NWS Daily Summary

Daily Weather History Graph

Daily Weather History Graph

Search for Another Location

Airport or City:

Trip Planner

Search our weather history database for the weather conditions in past years. The results will help you decide how hot, cold, wet, or windy it might be!

Date:

Astronomy

Jul. 18, 2014 Rise Set
Actual Time 5:36 AM EDT 8:23 PM EDT
Civil Twilight 5:03 AM EDT 8:56 PM EDT
Nautical Twilight 4:22 AM EDT 9:37 PM EDT
Astronomical Twilight 3:35 AM EDT 10:23 PM EDT
Moon No Moon Rise 12:55 PM EDT
Length of Visible Light 15h 52m
Length of Day
14h 47m
Waning Gibbous, 55% of the Moon is Illuminated
Jul 18
Waning Gibbous
Jul 18
Last Quarter
Jul 26
New
Aug 3
First Quarter
Aug 10
Full

Hourly Weather History & Observations

Time (EDT) Temp. Dew Point Humidity Pressure Visibility Wind Dir Wind Speed Gust Speed Precip Events Conditions
12:53 AM 59.0 °F 54.0 °F 83% 30.14 in 10.0 mi SW 4.6 mph - N/A   Clear
2:53 AM 55.9 °F 52.0 °F 87% 30.16 in 10.0 mi SW 4.6 mph - N/A   Clear
3:53 AM 55.0 °F 51.1 °F 86% 30.17 in 10.0 mi WSW 4.6 mph - N/A   Clear
4:53 AM 54.0 °F 51.1 °F 90% 30.17 in 10.0 mi Calm Calm - N/A   Clear
5:53 AM 54.0 °F 50.0 °F 86% 30.19 in 10.0 mi SW 3.5 mph - N/A   Clear
6:53 AM 55.9 °F 52.0 °F 87% 30.22 in 10.0 mi Calm Calm - N/A   Clear
7:53 AM 62.1 °F 53.1 °F 72% 30.23 in 10.0 mi Calm Calm - N/A   Clear
8:53 AM 68.0 °F 51.1 °F 55% 30.24 in 10.0 mi NW 6.9 mph - N/A   Clear
10:53 AM 73.0 °F 48.9 °F 42% 30.24 in 10.0 mi North 6.9 mph - N/A   Clear
11:53 AM 75.0 °F 48.0 °F 38% 30.23 in 10.0 mi NNE 10.4 mph - N/A   Clear
1:53 PM 77.0 °F 51.1 °F 40% 30.23 in 10.0 mi NW 6.9 mph - N/A   Clear
3:53 PM 77.0 °F 46.9 °F 34% 30.21 in 10.0 mi Variable 4.6 mph - N/A   Clear
4:53 PM 77.0 °F 46.0 °F 33% 30.21 in 10.0 mi WNW 5.8 mph - N/A   Clear
5:53 PM 77.0 °F 48.0 °F 36% 30.21 in 10.0 mi Variable 5.8 mph - N/A   Clear
6:53 PM 75.9 °F 50.0 °F 40% 30.22 in 10.0 mi NW 3.5 mph - N/A   Clear
7:53 PM 69.1 °F 59.0 °F 70% 30.22 in 10.0 mi Calm Calm - N/A   Clear
8:53 PM 64.9 °F 57.0 °F 75% 30.24 in 10.0 mi WSW 3.5 mph - N/A   Clear
9:53 PM 62.1 °F 55.9 °F 80% 30.25 in 10.0 mi SW 5.8 mph - N/A   Clear
10:53 PM 60.1 °F 54.0 °F 80% 30.25 in 10.0 mi SW 4.6 mph - N/A   Clear
11:53 PM 59.0 °F 54.0 °F 83% 30.25 in 10.0 mi SW 3.5 mph - N/A   Clear